Weather Roundup
Issued by NWS Chicago, IL

Home | Current Version | Previous Version | Text Only | Print | Product List | Glossary Off
Versions: 1 2 3 4 5 6 7 8 9 10 11 12 13 14 15 16 17 18 19 20 21 22 23 24 25 26 27 28 29 30 31 32 33 34 35 36 37 38 39 40 41 42 43 44 45 46 47 48 49 50

000
NZUS59 KLOT 102008
HRRLOT

CHICAGO AREA WEATHER ROUNDUP
NATIONAL WEATHER SERVICE CHICAGO/ROMEOVILLE IL
200 PM CST WED FEB 10 2016

NOTE: "FAIR" INDICATES FEW OR NO CLOUDS BELOW 12,000 FEET WITH NO
SIGNIFICANT WEATHER AND/OR OBSTRUCTIONS TO VISIBILITY.

* THESE STATIONS ARE NOT UNDER NWS QUALITY CONTROL. THEY ALSO MAY NOT
  REPORT WEATHER SUCH AS PRECIPITATION OR FOG.

ILZ005-006-012>014-019>023-102100-
NORTHEAST ILLINOIS

CITY           SKY/WX    TMP DP  RH WIND       PRES   REMARKS
OHARE          PTSUNNY   17   3  54 NW12G20   30.01S WCI   4
MIDWAY         MOSUNNY   18   2  49 NW12      30.02S WCI   5
AURORA         MOSUNNY   18   6  59 NW12G21   30.03S WCI   5
LANSING*       PTSUNNY   18   4  54 NW8       30.01S WCI   8
JOLIET*        MOSUNNY   19   6  56 W9G16     30.04S WCI   8
WAUKEGAN       CLOUDY    14   2  58 VRB6      30.00R WCI   5
DUPAGE AIRPORT PTSUNNY   16   2  54 NW10      30.00F WCI   4
WHEELING       MOSUNNY   16   3  56 W10       30.02S WCI   4
KANKAKEE*      PTSUNNY   17   6  59 NW10G16   30.04S WCI   5
MORRIS*        MOSUNNY   18   6  58 NW8       30.01F WCI   8
LEWIS AIRPORT* PTSUNNY   17   6  59 NW12G18   30.02S WCI   5
$$

WIZ051-052-058>065-066-070>072-102100-
SOUTHEAST WISCONSIN

CITY           SKY/WX    TMP DP  RH WIND       PRES   REMARKS
MILWAUKEE      PTSUNNY   15  -1  49 NW12      30.00S WCI   2
KENOSHA*       PTSUNNY   15   1  53 NW10G18   30.00S WCI   2
RACINE*        PTSUNNY   15  -1  49 NW9       30.02R WCI   3
BURLINGTON     PTSUNNY   13  -1  54 NW13      30.01R WCI  -2
WAUKESHA       CLOUDY    10   0  61 NW12      30.00S WCI  -4
WEST BEND      PTSUNNY   12  -2  52 NW5       30.00R WCI   4
$$

INZ001>003-010>013-019-020-102100-
NORTHWEST INDIANA

CITY           SKY/WX    TMP DP  RH WIND       PRES   REMARKS
GARY*          PTSUNNY   19   3  49 W12       30.02S WCI   7
MICHIGAN CITY* NOT AVBL
RENSSELAER*    NOT AVBL
VALPARAISO     CLOUDY    17   5  59 NW3       30.00R
$$

LMZ740>746-102100-
SOUTHERN LAKE MICHIGAN

STATION/POSITION TIME  SKY/WX   TEMP WIND        PRES    VSBY
                                AIR  DIR/SP/G
                 (UTC)          (F)  (DEG/KT/KT) (MB)    (MI)
HARRISON CRIB    1900            16  310/ 10/ 13   N/A
BURNHAM HARBOR   2000            18  250/  7/ 14   N/A
CALUMET HARBOR   1900            17  260/  5/  9 1015.6F
BURNS HARBOR     1900            16  290/ 10/ 12 1016.6F
MICHIGAN CITY    1900            15  260/ 16/ 18   N/A
$$

ABBREVIATIONS USED IN REMARKS
   TC - TEMPERATURE IN CELSIUS
  WCI - WIND CHILL INDEX
   HX - HEAT INDEX
  VSB - VISIBILITY
$$



USA.gov is the U.S. government's official web portal to all federal, state and local government web resources and services.